Starlink 3895

operational
NORAD ID: 52583 Int'l Des: 2022-051 Owner: SPXS Country: US Constellation: starlink
LEOCIRCULAR

关于 Starlink 3895

正在加载描述...

实时位置

正在加载3D地球...

即将过境

高度历史

Altitude vs Time

uPlot chart will show altitude changes over time

两行轨道根数

1 52583U 22051AZ 25307.74814885 .00001169 00000-0 91509-4 0 9990
2 52583 53.2177 324.4945 0001279 89.3907 270.7232 15.08840583192575
Epoch: Nov 3, 2025 • Age: 12 hours

当前状态

高度 558.1 km
速度 7.58 km/s
星下点 -50.51°S, 118.76°E
发射日期 May 13, 2022
运行时间 3.4 years
类型 internet

技术详情

分类 Payload
质量 297.00 kg
干质量 275.00 kg
总质量 297.00 kg
长度 0.20 m
直径 2.80 m
跨度 9.00 m
形状 Box + pan
制造商 SPXS
平台类型 Starlink
阶段状态 In Orbit
所有者/国家 SPXS/US

大型星座

Loading constellations...